Location: Burbank
(38.7788°N, 114.0429°W)
Time: 13:48:21
(UTC+00:00)

Vanguard 2 Rocket - Pass Details

Date: 20 May 2026
Orbit: 553 x 3286 km, 32.9° (Epoch: 6 June)

Event Time Altitude Azimuth Distance (km) Brightness Sun altitude
Rises 16:25:37 0° 230° (SW) 4,123 10.0 45.8°
Reaches altitude 10° 16:28:04 10° 224° (SW) 3,439 9.7 46.2°
Maximum altitude 16:36:50 48° 152° (SSE) 2,443 10.3 47.9°
Drops below altitude 10° 16:51:36 10° 85° (E) 5,645 11.7 50.7°
Sets 16:56:54 0° 81° (E) 6,953 11.9 51.7°
